period_start,C,m1,H,J0,J1,J2,J3,J4,J5,JA,JB,JC,JD,JJ,JK,JN,#
2015-06-29 00:02:50,-0.00,0.06,0.00,29.10,32.62,34.89,4.66,26.42,1007.83,2015.05,3429.13,3266.70,3551.05,349.95,337.67,20.65,0000 0000 0000 0000 000000
2015-06-29 00:07:51,0.02,0.06,0.00,29.11,32.64,34.91,4.67,26.41,1007.83,2015.07,3429.03,3266.37,3551.03,349.59,337.17,20.68,0000 0000 0000 0000 000000
2015-06-29 00:12:52,0.00,0.06,0.00,29.12,32.65,34.93,4.58,26.41,1007.83,2015.03,3429.00,3266.09,3551.00,349.97,337.71,20.71,0000 0000 0000 0000 000000
2015-06-29 00:17:53,-0.00,0.06,0.00,29.14,32.67,34.94,4.65,26.42,1007.83,2015.02,3428.99,3266.01,3550.98,349.97,337.65,20.74,0000 0000 0000 0000 000000
2015-06-29 00:22:55,0.00,0.06,0.00,29.15,32.68,34.96,4.64,26.47,1007.83,2015.00,3428.97,3266.00,3550.89,350.14,337.84,20.77,0000 0000 0000 0000 000000
2015-06-29 00:27:56,0.03,0.06,0.00,29.17,32.70,34.98,4.62,26.39,1007.83,2015.00,3428.61,3265.99,3550.28,349.93,337.41,20.80,0000 0000 0000 0000 000000
2015-06-29 00:32:57,0.04,0.06,0.00,29.20,32.72,34.99,4.65,26.43,1007.83,2014.99,3428.03,3265.54,3550.00,349.91,337.77,20.83,0000 0000 0000 0000 000000
2015-06-29 00:37:59,0.01,0.06,0.00,29.22,32.73,35.00,4.69,26.41,1007.75,2014.95,3427.99,3265.11,3549.97,350.37,337.79,20.86,0000 0000 0000 0000 000000
2015-06-29 00:43:00,-0.01,0.06,0.00,29.23,32.75,35.02,4.64,26.32,1007.55,2014.89,3427.98,3265.02,3549.92,350.34,337.76,20.89,0000 0000 0000 0000 000000
2015-06-29 00:48:01,0.00,0.06,0.00,29.25,32.76,35.03,4.54,26.37,1007.56,2014.89,3427.98,3265.01,3549.86,349.82,337.25,20.91,0000 0000 0000 0000 000000
2015-06-29 00:53:02,-0.02,0.06,0.00,29.25,32.77,35.04,4.70,26.44,1007.41,2014.74,3427.92,3265.00,3549.47,350.43,338.05,20.94,0000 0000 0000 0000 000000
2015-06-29 00:58:04,-0.00,0.06,0.00,29.27,32.79,35.07,4.68,26.45,1007.34,2014.51,3427.52,3264.99,3549.10,350.20,337.65,20.97,0000 0000 0000 0000 000000
2015-06-29 01:03:05,-0.02,0.06,0.00,29.28,32.80,35.08,4.61,26.50,1007.34,2014.27,3427.14,3264.98,3549.02,350.31,337.75,21.00,0000 0000 0000 0000 000000
2015-06-29 01:08:06,0.00,0.06,0.00,29.30,32.82,35.10,4.58,26.46,1007.34,2014.19,3427.02,3264.89,3549.00,349.78,337.07,21.03,0000 0000 0000 0000 000000
2015-06-29 01:13:07,-0.01,0.06,0.00,29.32,32.83,35.11,4.57,26.46,1007.34,2014.11,3427.00,3264.73,3548.99,349.86,337.32,21.06,0000 0000 0000 0000 000000
2015-06-29 01:18:08,0.02,0.06,0.00,29.33,32.85,35.13,4.69,26.60,1007.34,2014.03,3426.99,3264.28,3548.96,350.36,337.65,21.09,0000 0000 0000 0000 000000
2015-06-29 01:23:09,0.01,0.06,0.00,29.35,32.86,35.14,4.67,26.47,1007.34,2014.01,3426.90,3264.04,3548.76,350.08,337.45,21.12,0000 0000 0000 0000 000000
2015-06-29 01:28:10,0.03,0.06,0.00,29.37,32.87,35.16,4.67,26.49,1007.33,2014.00,3426.42,3264.00,3548.11,350.41,337.65,21.15,0000 0000 0000 0000 000000
2015-06-29 01:33:12,0.01,0.06,0.00,29.38,32.90,35.17,4.61,26.43,1007.31,2014.00,3426.06,3264.00,3548.00,349.99,337.05,21.18,0000 0000 0000 0000 000000
2015-06-29 01:38:13,0.00,0.06,0.00,29.39,32.90,35.19,4.56,26.39,1007.31,2014.00,3426.01,3263.96,3548.00,349.75,337.01,21.21,0000 0000 0000 0000 000000
2015-06-29 01:43:14,0.01,0.06,0.00,29.41,32.92,35.20,4.59,26.40,1007.32,2014.00,3426.00,3263.82,3547.98,349.95,337.09,21.24,0000 0000 0000 0000 000000
2015-06-29 01:48:15,0.02,0.06,0.00,29.42,32.94,35.22,4.63,26.38,1007.34,2013.99,3425.99,3263.42,3547.90,349.83,337.24,21.27,0000 0000 0000 0000 000000
2015-06-29 01:53:16,0.03,0.06,0.00,29.44,32.95,35.23,4.60,26.32,1007.34,2013.97,3425.73,3263.06,3547.38,349.59,336.75,21.30,0000 0000 0000 0000 000000
2015-06-29 01:58:17,0.01,0.06,0.00,29.45,32.96,35.25,4.62,26.34,1007.34,2013.93,3425.29,3263.02,3547.05,349.22,336.56,21.33,0000 0000 0000 0000 000000
2015-06-29 02:03:19,0.00,0.06,0.00,29.47,32.97,35.25,4.70,26.38,1007.34,2013.90,3425.05,3263.00,3547.00,350.65,337.89,21.35,0000 0000 0000 0000 000000
2015-06-29 02:08:20,-0.04,0.06,0.00,29.48,32.99,35.27,4.63,26.43,1007.33,2013.70,3425.01,3263.00,3547.00,349.66,337.11,21.38,0000 0000 0000 0000 000000
2015-06-29 02:13:21,0.01,0.06,0.00,29.50,33.00,35.28,4.67,26.35,1007.30,2013.70,3425.00,3263.00,3546.99,350.07,337.17,21.41,0000 0000 0000 0000 000000
2015-06-29 02:18:22,-0.06,0.06,0.00,29.52,33.02,35.31,4.73,26.39,1007.08,2013.38,3424.98,3262.95,3546.89,350.59,337.64,21.44,0000 0000 0000 0000 000000
2015-06-29 02:23:23,-0.00,0.06,0.00,29.55,33.03,35.32,4.64,26.38,1006.87,2013.18,3424.92,3262.80,3546.49,349.84,336.85,21.47,0000 0000 0000 0000 000000
2015-06-29 02:28:24,0.01,0.06,0.00,29.55,33.05,35.32,4.62,26.32,1006.88,2013.07,3424.78,3262.52,3546.10,349.94,336.88,21.50,0000 0000 0000 0000 000000
2015-06-29 02:33:26,0.02,0.06,0.00,29.56,33.06,35.34,4.63,26.38,1006.87,2013.02,3424.32,3262.11,3546.01,350.44,337.42,21.53,0000 0000 0000 0000 000000
2015-06-29 02:38:27,0.01,0.06,0.00,29.57,33.07,35.38,4.63,26.40,1006.85,2013.00,3424.03,3262.01,3545.99,349.93,336.91,21.56,0000 0000 0000 0000 000000
2015-06-29 02:43:28,0.00,0.06,0.00,29.59,33.09,35.39,4.67,26.28,1006.85,2013.00,3424.00,3262.00,3545.92,350.30,337.09,21.59,0000 0000 0000 0000 000000
2015-06-29 02:48:29,0.02,0.06,0.00,29.60,33.10,35.42,4.55,26.29,1006.86,2013.00,3423.97,3261.90,3545.25,349.99,336.87,21.62,0000 0000 0000 0000 000000
2015-06-29 02:53:31,0.01,0.06,0.00,29.61,33.12,35.43,4.61,26.32,1006.87,2012.98,3423.79,3261.57,3545.01,350.07,336.90,21.65,0000 0000 0000 0000 000000
2015-06-29 02:58:31,0.03,0.06,0.00,29.62,33.13,35.45,4.53,26.28,1006.85,2012.98,3423.43,3261.26,3545.00,350.07,336.89,21.68,0000 0000 0000 0000 000000
2015-06-29 03:03:33,-0.00,0.06,0.00,29.64,33.15,35.49,4.60,26.31,1006.85,2012.94,3423.06,3261.03,3544.99,350.02,336.86,21.71,0000 0000 0000 0000 000000
2015-06-29 03:08:34,0.01,0.06,0.00,29.65,33.16,35.51,4.58,26.51,1006.85,2012.94,3423.00,3261.00,3544.94,349.51,336.42,21.74,0000 0000 0000 0000 000000
2015-06-29 03:13:35,-0.00,0.06,0.00,29.67,33.17,35.53,4.63,26.59,1006.85,2012.85,3423.00,3261.00,3544.80,350.33,336.99,21.76,0000 0000 0000 0000 000000
2015-06-29 03:18:36,-0.03,0.06,0.00,29.68,33.19,35.55,4.62,26.53,1006.84,2012.63,3422.92,3260.99,3544.28,350.56,337.40,21.79,0000 0000 0000 0000 000000
2015-06-29 03:23:37,0.04,0.06,0.00,29.70,33.20,35.56,4.66,26.55,1006.74,2012.63,3422.67,3260.94,3544.10,350.45,337.12,21.82,0000 0000 0000 0000 000000
2015-06-29 03:28:39,-0.05,0.06,0.00,29.71,33.22,35.58,4.62,26.41,1006.64,2012.18,3422.16,3260.66,3544.01,350.17,336.79,21.85,0000 0000 0000 0000 000000
2015-06-29 03:33:40,0.01,0.06,0.00,29.72,33.22,35.60,4.66,26.50,1006.46,2012.10,3422.01,3260.20,3544.00,349.85,336.43,21.88,0000 0000 0000 0000 000000
2015-06-29 03:38:42,-0.01,0.06,0.00,29.73,33.25,35.62,4.61,26.59,1006.38,2012.02,3422.00,3260.03,3543.88,349.65,336.14,21.91,0000 0000 0000 0000 000000
2015-06-29 03:43:43,0.01,0.06,0.00,29.75,33.25,35.63,4.72,26.52,1006.36,2012.01,3421.98,3260.00,3543.61,350.18,336.81,21.94,0000 0000 0000 0000 000000
2015-06-29 03:48:44,0.01,0.06,0.00,29.76,33.27,35.65,4.67,26.54,1006.36,2012.01,3421.89,3260.00,3543.30,350.42,336.98,21.97,0000 0000 0000 0000 000000
2015-06-29 03:53:45,0.02,0.06,0.00,29.77,33.28,35.67,4.55,26.39,1006.36,2012.00,3421.31,3259.97,3543.05,349.90,336.37,22.00,0000 0000 0000 0000 000000
2015-06-29 03:58:47,0.01,0.06,0.00,29.77,33.30,35.69,4.63,26.49,1006.35,2012.00,3421.07,3259.90,3543.00,350.06,336.52,22.03,0000 0000 0000 0000 000000
2015-06-29 04:03:48,0.02,0.07,0.00,29.79,33.30,35.71,4.64,26.55,1006.36,2012.00,3421.00,3259.48,3542.98,350.19,336.57,22.06,0000 0000 0000 0000 000000
2015-06-29 04:08:50,0.01,0.07,0.00,29.80,33.32,35.72,4.65,26.50,1006.37,2012.00,3421.00,3259.14,3542.93,350.26,336.76,22.09,0000 0000 0000 0000 000000
2015-06-29 04:13:51,0.01,0.07,0.00,29.82,33.33,35.73,4.57,26.46,1006.37,2011.99,3421.00,3259.04,3542.70,349.63,336.13,22.12,0000 0000 0000 0000 000000
2015-06-29 04:18:52,0.01,0.07,0.00,29.82,33.35,35.76,4.61,26.47,1006.36,2011.99,3420.94,3259.01,3542.49,350.29,336.68,22.15,0000 0000 0000 0000 000000
2015-06-29 04:23:53,0.02,0.07,0.00,29.84,33.35,35.78,4.58,26.36,1006.36,2011.98,3420.51,3259.00,3542.10,350.15,336.65,22.17,0000 0000 0000 0000 000000
2015-06-29 04:28:54,0.01,0.07,0.00,29.85,33.37,35.81,4.69,26.43,1006.34,2011.98,3420.33,3259.00,3542.05,350.48,336.77,22.20,0000 0000 0000 0000 000000
2015-06-29 04:33:56,0.01,0.07,0.00,29.85,33.38,35.83,4.57,26.35,1006.31,2011.99,3420.03,3258.99,3542.00,350.05,336.34,22.23,0000 0000 0000 0000 000000
2015-06-29 04:38:57,-0.01,0.07,0.00,29.85,33.40,35.84,4.55,26.45,1006.34,2011.94,3420.01,3258.88,3542.00,349.88,336.52,22.26,0000 0000 0000 0000 000000
2015-06-29 04:43:59,0.01,0.07,0.00,29.87,33.40,35.85,4.67,26.41,1006.36,2011.91,3420.00,3258.73,3541.98,350.29,336.66,22.29,0000 0000 0000 0000 000000
2015-06-29 04:49:00,-0.00,0.07,0.00,29.87,33.41,35.87,4.58,26.43,1006.36,2011.75,3419.97,3258.30,3541.77,349.67,336.12,22.32,0000 0000 0000 0000 000000
2015-06-29 04:54:01,-0.02,0.07,0.00,29.87,33.42,35.88,4.61,26.45,1006.35,2011.32,3419.65,3258.01,3541.13,349.92,336.26,22.35,0000 0000 0000 0000 000000
2015-06-29 04:59:02,-0.01,0.07,0.00,29.88,33.43,35.88,4.61,26.45,1006.04,2011.22,3419.27,3258.00,3541.02,349.51,335.84,22.38,0000 0000 0000 0000 000000
2015-06-29 05:04:04,-0.01,0.07,0.00,29.89,33.45,35.90,4.62,26.46,1005.89,2011.07,3419.03,3258.00,3541.00,350.45,336.67,22.41,0000 0000 0000 0000 000000
2015-06-29 05:09:05,0.01,0.07,0.00,29.89,33.45,35.90,4.62,26.43,1005.88,2011.05,3419.00,3257.97,3540.99,350.56,336.81,22.44,0000 0000 0000 0000 000000
2015-06-29 05:14:06,-0.01,0.07,0.00,29.90,33.46,35.91,4.52,26.42,1005.87,2011.03,3419.00,3257.94,3540.96,349.77,335.90,22.47,0000 0000 0000 0000 000000
2015-06-29 05:19:07,0.01,0.07,0.00,29.90,33.47,35.92,4.59,26.34,1005.89,2011.01,3418.96,3257.78,3540.83,350.37,336.54,22.50,0000 0000 0000 0000 000000
2015-06-29 05:24:08,0.02,0.07,0.00,29.81,33.47,35.87,4.64,26.37,1005.87,2011.01,3418.82,3257.56,3540.65,350.26,336.53,22.53,0000 0000 0000 0000 000000
2015-06-29 05:29:09,0.01,0.07,0.00,29.56,33.47,35.97,4.60,26.43,1005.88,2011.01,3418.51,3257.43,3540.47,349.91,336.49,22.56,0000 0000 0000 0000 000000
2015-06-29 05:34:11,0.00,0.07,0.00,29.26,33.47,36.14,4.67,26.42,1005.87,2011.01,3418.21,3257.51,3540.44,350.05,336.90,22.58,0000 0000 0000 0000 000000
2015-06-29 05:39:12,0.01,0.07,0.00,28.93,33.45,36.07,4.76,26.50,1005.79,2011.02,3418.01,3257.42,3540.43,350.27,337.57,22.61,0000 0000 0000 0000 000000
2015-06-29 05:44:13,-0.02,0.07,0.00,28.56,33.42,35.84,4.67,26.47,1005.61,2011.09,3418.02,3257.87,3540.89,350.39,337.96,22.64,0000 0000 0000 0000 000000
2015-06-29 05:49:15,0.11,0.07,0.00,28.23,33.37,35.62,4.61,26.39,1005.40,2011.77,3418.31,3258.00,3541.01,349.69,337.59,22.67,0000 0000 0000 0000 000000
2015-06-29 05:54:16,-0.05,0.07,0.00,27.94,33.30,35.24,4.67,26.52,1005.39,2011.98,3418.86,3258.45,3541.59,350.33,338.61,22.70,0000 0000 0000 0000 000000
2015-06-29 05:59:17,-0.01,0.07,0.00,27.72,33.21,34.81,4.66,26.50,1005.39,2012.01,3418.99,3258.98,3541.99,349.64,338.13,22.73,0000 0000 0000 0000 000000
2015-06-29 06:04:18,0.04,0.07,0.00,27.53,33.12,34.46,4.69,26.46,1005.39,2012.53,3419.38,3259.58,3542.74,349.62,338.20,22.76,0000 0000 0000 0000 000000
2015-06-29 06:09:19,-0.01,0.07,0.00,27.38,33.01,34.23,4.64,26.48,1005.39,2012.98,3419.96,3260.13,3543.32,350.07,338.88,22.79,0000 0000 0000 0000 000000
2015-06-29 06:14:21,0.02,0.07,0.00,27.35,32.90,34.07,4.59,26.47,1005.35,2013.32,3420.51,3260.93,3544.09,349.95,338.81,22.82,0000 0000 0000 0000 000000
2015-06-29 06:19:22,-0.00,0.07,0.00,27.37,32.79,34.03,4.62,26.63,1005.36,2013.96,3421.13,3261.61,3544.94,349.78,338.40,22.85,0000 0000 0000 0000 000000
2015-06-29 06:24:23,-0.02,0.07,0.00,27.41,32.68,34.08,4.74,26.63,1005.31,2014.18,3421.90,3262.20,3545.68,350.84,339.55,22.88,0000 0000 0000 0000 000000
2015-06-29 06:29:24,0.06,0.07,0.00,27.47,32.57,34.22,4.69,26.62,1005.28,2014.92,3422.23,3262.95,3546.31,350.13,338.83,22.91,0000 0000 0000 0000 000000
2015-06-29 06:34:25,-0.02,0.07,0.00,27.52,32.47,34.42,4.66,26.65,1005.08,2015.09,3422.95,3263.32,3546.97,349.81,338.56,22.94,0000 0000 0000 0000 000000
2015-06-29 06:39:27,0.06,0.07,0.00,27.59,32.38,34.38,4.71,26.64,1004.93,2015.68,3423.20,3263.95,3547.51,350.02,338.44,22.97,0000 0000 0000 0000 000000
2015-06-29 06:44:28,-0.03,0.07,0.00,27.65,32.29,34.34,4.65,26.57,1004.91,2015.99,3423.95,3264.50,3548.11,350.04,338.36,23.00,0000 0000 0000 0000 000000
2015-06-29 06:49:29,0.01,0.07,0.00,27.71,32.22,34.29,4.63,26.63,1004.90,2016.21,3424.46,3265.00,3548.93,349.87,337.96,23.02,0000 0000 0000 0000 000000
2015-06-29 06:54:31,0.04,0.07,0.00,27.76,32.15,34.22,4.66,26.60,1004.91,2016.87,3424.97,3265.53,3549.21,350.01,338.29,23.05,0000 0000 0000 0000 000000
2015-06-29 06:59:32,-0.02,0.07,0.00,27.82,32.09,34.21,4.61,26.57,1004.92,2016.99,3425.09,3265.98,3549.94,350.04,338.24,23.08,0000 0000 0000 0000 000000
2015-06-29 07:04:33,-0.03,0.07,0.00,27.87,32.03,34.20,4.63,26.57,1004.92,2017.02,3425.72,3266.16,3550.03,349.94,338.07,23.11,0000 0000 0000 0000 000000
2015-06-29 07:09:34,0.02,0.07,0.00,27.92,31.99,34.22,4.69,26.71,1004.91,2017.27,3425.98,3266.78,3550.56,350.22,338.27,23.14,0000 0000 0000 0000 000000
2015-06-29 07:14:35,0.08,0.07,0.00,27.97,31.95,34.22,4.74,26.62,1004.90,2017.88,3426.01,3266.99,3550.97,350.14,337.95,23.17,0000 0000 0000 0000 000000
2015-06-29 07:19:37,-0.00,0.07,0.00,28.01,31.91,34.21,4.66,26.49,1004.91,2017.98,3426.05,3267.01,3551.02,350.14,337.89,23.20,0000 0000 0000 0000 000000
2015-06-29 07:24:38,-0.02,0.07,0.00,28.06,31.89,34.16,4.75,26.51,1004.91,2017.99,3426.42,3267.14,3551.24,350.61,338.45,23.23,0000 0000 0000 0000 000000
2015-06-29 07:29:39,-0.05,0.07,0.00,28.10,31.86,34.13,4.66,26.60,1004.90,2018.00,3426.76,3267.52,3551.64,349.98,337.85,23.26,0000 0000 0000 0000 000000
2015-06-29 07:34:40,-0.01,0.07,0.00,28.13,31.85,34.07,4.71,26.57,1004.90,2018.04,3426.97,3267.94,3551.96,350.15,337.98,23.29,0000 0000 0000 0000 000000
2015-06-29 07:39:42,-0.00,0.07,0.00,28.15,31.83,34.06,4.80,26.57,1004.90,2018.09,3426.98,3267.98,3551.98,350.73,338.65,23.32,0000 0000 0000 0000 000000
2015-06-29 07:44:43,0.08,0.07,0.00,28.17,31.82,34.05,4.58,26.50,1004.90,2018.42,3426.99,3267.99,3551.99,349.90,337.81,23.35,0000 0000 0000 0000 000000
2015-06-29 07:49:44,0.02,0.07,0.00,28.21,31.82,34.05,4.67,26.48,1004.90,2018.67,3426.99,3267.99,3551.99,350.11,337.79,23.38,0000 0000 0000 0000 000000
2015-06-29 07:54:45,0.02,0.08,0.00,28.24,31.80,34.05,4.80,26.50,1004.90,2018.91,3426.99,3267.99,3551.99,350.75,338.44,23.40,0000 0000 0000 0000 000000
2015-06-29 07:59:46,-0.00,0.08,0.00,28.26,31.80,34.02,4.70,26.45,1004.89,2018.96,3426.99,3268.00,3552.00,350.19,337.55,23.43,0000 0000 0000 0000 000000
2015-06-29 08:04:48,0.00,0.08,0.00,28.28,31.80,34.03,4.67,26.38,1004.86,2018.96,3426.99,3268.00,3552.00,350.13,337.77,23.46,0000 0000 0000 0000 000000
2015-06-29 08:09:49,0.00,0.08,0.00,28.31,31.80,34.03,4.56,26.35,1004.87,2018.98,3426.97,3268.00,3552.00,349.78,337.37,23.49,0000 0000 0000 0000 000000
2015-06-29 08:14:50,0.00,0.08,0.00,28.34,31.81,34.04,4.64,26.37,1004.90,2018.98,3426.98,3268.00,3552.00,350.56,337.99,23.52,0000 0000 0000 0000 000000
2015-06-29 08:19:51,0.00,0.08,0.00,28.37,31.82,34.05,4.61,26.42,1004.82,2018.98,3426.97,3268.00,3552.00,350.36,337.68,23.55,0000 0000 0000 0000 000000
2015-06-29 08:24:53,0.00,0.08,0.00,28.39,31.82,34.07,4.57,26.44,1004.81,2018.99,3426.95,3268.00,3552.00,350.08,337.58,23.58,0000 0000 0000 0000 000000
2015-06-29 08:29:54,0.00,0.08,0.00,28.40,31.82,34.08,4.75,26.46,1004.89,2018.99,3426.86,3268.00,3552.00,350.56,338.08,23.61,0000 0000 0000 0000 000000
2015-06-29 08:34:55,0.01,0.08,0.00,28.41,31.84,34.09,4.71,26.46,1004.90,2018.97,3426.43,3267.97,3551.99,350.59,338.29,23.64,0000 0000 0000 0000 000000
2015-06-29 08:39:56,0.03,0.08,0.00,28.42,31.85,34.11,4.68,26.44,1004.90,2018.98,3426.05,3267.78,3551.66,350.02,337.74,23.67,0000 0000 0000 0000 000000
2015-06-29 08:44:58,0.01,0.08,0.00,28.45,31.86,34.12,4.56,26.43,1004.91,2018.93,3426.00,3267.48,3551.35,349.64,337.35,23.70,0000 0000 0000 0000 000000
2015-06-29 08:49:59,0.02,0.08,0.00,28.47,31.87,34.13,4.56,26.40,1004.91,2018.95,3426.00,3267.18,3551.04,349.65,337.12,23.73,0000 0000 0000 0000 000000
2015-06-29 08:55:00,-0.01,0.08,0.00,28.49,31.88,34.15,4.73,26.39,1004.90,2018.84,3425.99,3267.07,3551.01,350.43,337.70,23.76,0000 0000 0000 0000 000000
2015-06-29 09:00:01,0.01,0.08,0.00,28.50,31.90,34.16,4.51,26.36,1004.90,2018.90,3425.98,3267.02,3551.00,349.55,337.07,23.79,0000 0000 0000 0000 000000
2015-06-29 09:05:03,-0.00,0.08,0.00,28.51,31.90,34.17,4.74,26.47,1004.90,2018.90,3425.96,3267.02,3550.99,350.11,337.51,23.82,0000 0000 0000 0000 000000
2015-06-29 09:10:04,0.00,0.08,0.00,28.53,31.92,34.19,4.72,26.48,1004.87,2018.73,3425.37,3266.99,3550.73,350.22,337.54,23.84,0000 0000 0000 0000 000000
2015-06-29 09:15:05,-0.01,0.08,0.00,28.55,31.92,34.20,4.59,26.40,1004.86,2018.59,3425.06,3266.97,3550.41,350.64,337.89,23.87,0000 0000 0000 0000 000000
2015-06-29 09:20:06,-0.05,0.08,0.00,28.57,31.95,34.20,4.61,26.43,1004.90,2018.14,3425.00,3266.68,3550.05,350.19,337.64,23.90,0000 0000 0000 0000 000000
2015-06-29 09:25:07,0.02,0.08,0.00,28.59,31.95,34.22,4.61,26.35,1004.90,2018.05,3424.95,3266.08,3549.98,350.41,337.83,23.93,0000 0000 0000 0000 000000
2015-06-29 09:30:09,0.01,0.08,0.00,28.61,31.97,34.23,4.65,26.41,1004.90,2018.01,3424.65,3266.00,3549.86,350.28,337.66,23.96,0000 0000 0000 0000 000000
2015-06-29 09:35:10,0.05,0.08,0.00,28.63,31.98,34.25,4.57,26.38,1004.90,2018.01,3424.26,3265.77,3549.43,349.94,337.35,23.99,0000 0000 0000 0000 000000
2015-06-29 09:40:11,0.03,0.08,0.00,28.65,32.00,34.26,4.69,26.42,1004.90,2018.00,3423.89,3265.12,3548.98,350.41,337.55,24.02,0000 0000 0000 0000 000000
2015-06-29 09:45:12,0.00,0.08,0.00,28.67,32.01,34.28,4.61,26.42,1004.90,2018.00,3423.74,3265.01,3548.91,349.77,337.20,24.05,0000 0000 0000 0000 000000
2015-06-29 09:50:13,0.03,0.08,0.00,28.70,32.02,34.29,4.60,26.41,1004.89,2018.00,3423.27,3265.00,3548.53,349.82,337.02,24.08,0000 0000 0000 0000 000000
2015-06-29 09:55:15,0.01,0.08,0.00,28.71,32.04,34.30,4.68,26.43,1004.87,2018.00,3423.05,3265.00,3548.06,350.22,337.26,24.11,0000 0000 0000 0000 000000
2015-06-29 10:00:16,-0.00,0.08,0.00,28.72,32.05,34.32,4.62,26.38,1004.89,2017.99,3423.00,3264.97,3548.01,349.86,337.05,24.14,0000 0000 0000 0000 000000
2015-06-29 10:05:17,0.01,0.08,0.00,28.71,32.07,34.34,4.48,26.38,1004.90,2017.97,3422.99,3264.68,3547.99,349.80,337.09,24.17,0000 0000 0000 0000 000000
2015-06-29 10:10:19,0.02,0.08,0.00,28.72,32.09,34.36,4.56,26.40,1004.90,2017.95,3422.86,3264.31,3547.97,350.16,337.33,24.20,0000 0000 0000 0000 000000
2015-06-29 10:15:20,0.02,0.08,0.00,28.72,32.10,34.37,4.49,26.31,1004.90,2017.89,3422.44,3264.07,3547.84,350.01,337.14,24.22,0000 0000 0000 0000 000000
2015-06-29 10:20:21,-0.02,0.08,0.00,28.75,32.12,34.37,4.73,26.41,1004.90,2017.68,3422.01,3264.00,3547.20,350.15,337.30,24.25,0000 0000 0000 0000 000000
2015-06-29 10:25:22,-0.01,0.08,0.00,28.77,32.13,34.37,4.70,26.44,1004.90,2017.55,3422.00,3264.00,3547.06,349.82,337.10,24.28,0000 0000 0000 0000 000000
2015-06-29 10:30:24,-0.03,0.08,0.00,28.79,32.15,34.37,4.58,26.34,1004.90,2017.44,3422.00,3264.00,3547.01,349.69,336.79,24.31,0000 0000 0000 0000 000000
2015-06-29 10:35:25,0.00,0.08,0.00,28.82,32.17,34.38,4.65,26.38,1004.90,2017.36,3421.97,3263.96,3547.00,350.11,337.29,24.34,0000 0000 0000 0000 000000
2015-06-29 10:40:26,0.00,0.08,0.00,28.84,32.18,34.40,4.64,26.38,1004.89,2017.07,3421.52,3263.56,3546.89,349.98,336.92,24.37,0000 0000 0000 0000 000000
2015-06-29 10:45:27,0.02,0.08,0.00,28.87,32.20,34.42,4.52,26.35,1004.89,2017.01,3421.24,3263.16,3546.60,349.91,336.81,24.40,0000 0000 0000 0000 000000
2015-06-29 10:50:29,0.02,0.08,0.00,28.89,32.22,34.44,4.60,26.35,1004.77,2017.01,3421.02,3263.02,3546.09,349.83,336.87,24.43,0000 0000 0000 0000 000000
2015-06-29 10:55:30,0.00,0.08,0.00,28.92,32.24,34.46,4.59,26.38,1004.79,2017.00,3421.00,3263.00,3546.00,350.02,336.99,24.46,0000 0000 0000 0000 000000
2015-06-29 11:00:31,0.00,0.08,0.00,28.95,32.26,34.48,4.62,26.45,1004.77,2017.00,3420.99,3263.00,3545.99,349.78,336.81,24.49,0000 0000 0000 0000 000000
2015-06-29 11:05:32,0.00,0.08,0.00,28.97,32.28,34.51,4.66,26.38,1004.84,2017.00,3420.90,3262.98,3545.96,350.41,337.33,24.52,0000 0000 0000 0000 000000
2015-06-29 11:10:34,0.03,0.08,0.00,29.00,32.30,34.55,4.43,26.30,1004.88,2016.99,3420.37,3262.87,3545.53,349.05,336.02,24.55,0000 0000 0000 0000 000000
2015-06-29 11:15:35,0.03,0.08,0.00,29.01,32.32,34.59,4.71,26.42,1004.90,2016.98,3420.05,3262.34,3545.06,350.09,336.93,24.58,0000 0000 0000 0000 000000
2015-06-29 11:20:37,-0.01,0.08,0.00,29.00,32.35,34.63,4.70,26.43,1004.91,2016.90,3420.00,3262.04,3545.00,350.86,337.74,24.61,0000 0000 0000 0000 000000
2015-06-29 11:25:39,-0.00,0.08,0.00,28.98,32.36,34.67,4.67,26.37,1004.90,2016.76,3419.99,3262.00,3544.99,350.34,337.31,24.64,0000 0000 0000 0000 000000
2015-06-29 11:30:40,-0.08,0.08,0.00,28.96,32.38,34.68,4.68,26.48,1004.90,2016.43,3419.92,3262.00,3544.95,350.14,336.97,24.66,0000 0000 0000 0000 000000
2015-06-29 11:35:41,0.00,0.08,0.00,28.93,32.40,34.70,4.61,26.45,1004.90,2016.31,3419.65,3262.00,3544.81,350.17,337.05,24.69,0000 0000 0000 0000 000000
2015-06-29 11:40:43,0.01,0.08,0.00,28.90,32.40,34.73,4.58,26.38,1004.90,2016.08,3419.05,3261.89,3544.17,350.22,337.14,24.72,0000 0000 0000 0000 000000
2015-06-29 11:45:44,0.00,0.08,0.00,28.87,32.42,34.74,4.64,26.38,1004.90,2016.04,3419.00,3261.68,3544.03,350.12,337.11,24.75,0000 0000 0000 0000 000000
2015-06-29 11:50:45,0.01,0.08,0.00,28.86,32.42,34.75,4.64,26.37,1004.90,2016.02,3419.00,3261.26,3544.00,349.99,336.95,24.78,0000 0000 0000 0000 000000
2015-06-29 11:55:47,0.00,0.08,0.00,28.83,32.43,34.76,4.50,26.35,1004.90,2016.00,3418.95,3261.05,3544.00,349.27,336.43,24.81,0000 0000 0000 0000 000000
2015-06-29 12:00:48,0.00,0.08,0.00,28.81,32.44,34.76,4.58,26.37,1004.90,2016.00,3418.83,3261.02,3544.00,349.71,336.82,24.84,0000 0000 0000 0000 000000
2015-06-29 12:05:49,0.02,0.08,0.00,28.77,32.45,34.75,4.68,26.37,1004.90,2016.00,3418.33,3261.00,3543.87,350.21,337.31,24.87,0000 0000 0000 0000 000000
2015-06-29 12:10:50,0.11,0.08,0.00,28.75,32.45,34.75,4.53,26.30,1004.88,2016.00,3417.35,3260.36,3542.81,349.46,336.61,24.90,0000 0000 0000 0000 000000
2015-06-29 12:15:52,0.20,0.09,0.00,28.72,32.45,34.76,4.73,26.36,1004.83,2016.00,3414.95,3258.50,3541.02,350.25,337.31,24.93,0000 0000 0000 0000 000000
2015-06-29 12:20:53,0.21,0.10,0.00,28.70,32.44,34.77,4.59,26.26,1004.74,2016.00,3412.13,3256.45,3538.79,349.92,337.40,24.96,0000 0000 0000 0000 000000
2015-06-29 12:25:55,0.05,0.10,0.00,28.68,32.44,34.79,4.70,26.34,1004.77,2016.00,3411.01,3255.66,3538.00,350.38,337.44,24.99,0000 0000 0000 0000 000000
2015-06-29 12:30:56,0.05,0.10,0.00,28.66,32.43,34.79,4.71,26.45,1004.90,2016.00,3410.43,3255.07,3537.57,350.28,337.56,25.02,0000 0000 0000 0000 000000
2015-06-29 12:35:57,0.01,0.10,0.00,28.64,32.42,34.81,4.48,26.34,1004.89,2016.00,3410.02,3255.00,3537.10,349.41,336.83,25.05,0000 0000 0000 0000 000000
2015-06-29 12:40:59,0.00,0.10,0.00,28.61,32.42,34.80,4.58,26.44,1004.82,2016.00,3410.00,3255.00,3537.01,349.97,337.23,25.07,0000 0000 0000 0000 000000
2015-06-29 12:46:00,0.00,0.10,0.00,28.59,32.42,34.81,4.70,26.46,1004.80,2016.00,3410.00,3255.00,3537.03,350.22,337.44,25.10,0000 0000 0000 0000 000000
2015-06-29 12:51:02,0.00,0.10,0.00,28.56,32.40,34.83,4.65,26.62,1004.85,2016.00,3410.00,3255.00,3537.02,350.29,337.60,25.13,0000 0000 0000 0000 000000
2015-06-29 12:56:03,0.00,0.10,0.00,28.54,32.40,34.82,4.55,26.53,1004.88,2016.00,3409.99,3255.00,3537.01,349.95,337.25,25.16,0000 0000 0000 0000 000000
2015-06-29 13:01:04,0.00,0.10,0.00,28.51,32.40,34.82,4.69,26.63,1004.86,2016.00,3409.99,3255.00,3537.01,349.85,337.21,25.19,0000 0000 0000 0000 000000